Location: Banksville Park
(38.5557°N, 75.1182°W)
Time: 06:13:50
(UTC+00:00)

USA 234 - Pass Details

Date: 19 September 2020
Orbit: 1102 x 1106 km, 123.0° (Epoch: 16 October)

Event Time Altitude Azimuth Distance (km) Brightness Sun altitude
Rises 08:28:02 0° 125° (SE) 3,907 6.5 -26.9°
Reaches altitude 10° 08:30:30 10° 123° (ESE) 2,951 5.9 -26.4°
Maximum altitude 08:36:59 72° 41° (NE) 1,152 3.4 -25.3°
Drops below altitude 10° 08:43:30 10° 318° (NW) 2,963 5.3 -24.1°
Sets 08:45:59 0° 317° (NW) 3,924 6.0 -23.7°
